Home > Weather > Dunedin > Past weeks

Flag for New Zealand Weather for the Past 2 Weeks in Dunedin, New Zealand

Now
66 °F

Mostly cloudy.


Feels Like: 66 °F
Forecast: 51 / 68 °F
Wind: 20 mph from Northeast

Location: Christchurch Airport

Current Time: Feb 7, 2016 at 3:37:10 PM

Latest Report: Feb 7, 2016 at 3:00 PM


Visibility: N/A

Pressure: 30.01 "Hg

Humidity: 68%

Dew point: 55 °F

Location of DunedinLocation

Historic Weather in Dunedin — Graph

°F

Dunedin Temperature Yesterday

Maximum temperature yesterday: 73 °F (at 12:30 PM)
Minimum temperature yesterday: 50 °F (at 6:00 AM)
Average temperature yesterday: 61 °F

High & Low Weather Summary for the Past Weeks

 TemperatureHumidityPressure
High90 °F (Jan 23, 2:30 PM)100% (Jan 26, 10:30 PM)30.21 "Hg (Jan 26, 10:30 PM)
Low50 °F (Feb 6, 6:00 AM)20% (Jan 23, 2:30 PM)29.71 "Hg (Feb 5, 12:00 AM)
Average63 °F78%29.96 "Hg
* Reported Jan 23 2:00 PM — Feb 7 2:00 PM, Dunedin, Weather by CustomWeather, © 2016

Note: Actual official high and low records may vary slightly from our data, if they occured in-between our weather recording intervals... More about our weather records

Advertising

Dunedin Weather History for the Previous 24 Hours

 ConditionsComfort  
Time TempWeatherWind HumidityBarometerVisibility
2:00 PM
Sun, Feb 7
66 °FOvercast.20 mph68%30.04 "HgN/A
1:30 PM64 °FOvercast.18 mph73%30.04 "HgN/A
1:00 PM63 °FOvercast.17 mph77%30.07 "HgN/A
12:30 PM63 °FOvercast.17 mph77%30.07 "HgN/A
12:00 PM63 °FOvercast.15 mph77%30.07 "HgN/A
11:30 AM61 °FOvercast.12 mph88%30.07 "Hg4 mi
10:00 AM59 °FDrizzle. Fog.12 mph94%30.07 "Hg2 mi
9:30 AM59 °FFog.9 mph94%30.07 "Hg2 mi
9:00 AM59 °FDrizzle. Low clouds.9 mph94%30.07 "Hg2 mi
8:30 AM57 °FOvercast.10 mph94%30.07 "Hg2 mi
8:00 AM57 °FOvercast.12 mph94%30.07 "Hg3 mi
7:30 AM59 °FOvercast.12 mph77%30.04 "HgN/A
7:00 AM59 °FOvercast.10 mph77%30.04 "HgN/A
6:30 AM59 °FOvercast.12 mph77%30.04 "HgN/A
6:00 AM59 °FOvercast.8 mph77%30.04 "HgN/A
5:30 AM59 °FOvercast.8 mph77%30.04 "HgN/A
5:00 AM59 °FOvercast.9 mph82%30.04 "HgN/A
4:30 AM59 °FOvercast.10 mph77%30.07 "HgN/A
4:00 AM59 °FOvercast.9 mph82%30.07 "HgN/A
3:30 AM59 °FOvercast.9 mph77%30.07 "HgN/A
3:00 AM59 °FOvercast.9 mph77%30.07 "HgN/A
2:30 AM59 °FOvercast.9 mph77%30.07 "HgN/A
2:00 AM59 °FOvercast.10 mph77%30.07 "HgN/A
1:30 AM59 °FOvercast.9 mph82%30.09 "HgN/A
1:00 AM59 °FOvercast.7 mph82%30.09 "HgN/A
12:30 AM57 °FOvercast.8 mph88%30.09 "HgN/A
12:00 AM59 °FOvercast.8 mph82%30.09 "HgN/A
11:30 PM
Sat, Feb 6
57 °FOvercast.8 mph88%30.09 "HgN/A
11:00 PM57 °FOvercast.8 mph94%30.09 "HgN/A
10:30 PM57 °FDrizzle. Overcast.6 mph94%30.09 "Hg3 mi
10:00 PM57 °FDrizzle. Overcast.9 mph94%30.07 "Hg2 mi
9:30 PM59 °FOvercast.8 mph82%30.07 "Hg6 mi
9:00 PM59 °FOvercast.10 mph82%30.04 "HgN/A
8:30 PM61 °FMostly cloudy.10 mph77%30.04 "HgN/A
8:00 PM61 °FMostly cloudy.10 mph77%30.01 "HgN/A
7:30 PM61 °FMostly cloudy.12 mph77%30.01 "HgN/A
7:00 PM63 °FOvercast.12 mph73%29.98 "HgN/A
6:30 PM63 °FPartly sunny.13 mph77%29.98 "HgN/A
6:00 PM63 °FPartly sunny.15 mph77%29.98 "HgN/A
5:00 PM66 °FBroken clouds.13 mph68%29.98 "HgN/A
4:30 PM66 °FPartly sunny.15 mph68%29.95 "HgN/A
4:00 PM68 °FPartly sunny.12 mph64%29.95 "HgN/A
3:00 PM72 °FPassing clouds.10 mph61%29.95 "HgN/A
Weather by CustomWeather, © 2016

See weather overviewHow to use our weather pages